P/2007 S1 (Zhao)

T 2007 Dec. 6.80805 TT                                  Nakano

q   2.4947049            (2000.0)            P               Q

n   0.13310200     Peri.  245.40620     +0.88768996     -0.45588578

a   3.7990906      Node   141.62545     +0.45107198     +0.83285652

e   0.3433416      Incl.    5.97408     +0.09241542     +0.31387605

P   7.40 (+/- 0.22 day)

From 72 observations 2007 Sept. 8-Oct. 16.

Residuals in seconds of arc 

2007/                     070921 D29  0.1-  0.7+    071007 J47  0.3+  0.6+  

070908 699  0.8+  0.7+    070921 D29  0.7+  0.4-    071007 J47  0.3-  0.0   

070908 699  0.8-  1.0+    070921 D29  0.6-  0.6-    071007 J47  0.7-  1.0+  

070908 699  0.7+  0.2+    070921 349  0.9-  0.0     071009 D29  1.0-  0.3+  

070908 699  0.1+  0.3-    070921 D29  0.8-  0.0     071009 D29 (2.2-  0.2-) 

070915 699  0.2+  0.2+    070921 349  0.5-  0.7+    071009 D29  1.0-  0.4-  

070915 699  1.5-  0.1+    070921 D29  0.3+  0.9-    071009 D29  0.7-  0.7+  

070915 699  1.8-  0.2+    070921 D29  0.6-  0.2-    071009 D29  1.5-  1.1-  

070917 D29  0.3-  0.0     070921 D29  0.7-  0.2+    071009 D29  0.5+  0.7+  

070917 D29  0.3-  0.1+    070921 D29  0.4+  0.0     071009 D29  0.9-  0.8+  

070917 D29  0.4-  0.6+    070921 585 (3.2-  0.2+)   071009 D29  0.4-  0.4+  

070917 D29  1.2+  1.0-    070921 585 (2.1+  1.9-)   071009 585 (3.0-  6.0+) 

070919 473  0.1+  0.4+    070921 585 (3.2+  0.9-)   071009 585  1.4+  0.7+  

070919 473  0.3-  0.3+    070921 585 (0.8+  4.6-)   071009 585  0.0   1.0-  

070919 473  0.4+  0.5+    070923 H55  1.0+  1.9-    071010 355  1.2+  0.8-  

070919 204  1.8-  1.2+    070923 H55  1.2+  1.1-    071010 355  1.3+  1.0-  

070920 204  0.7+  0.0     070923 H55  1.3+  0.3-    071010 355  1.6+  0.2-  

070920 701 (2.0-  1.7-)   070924 291  1.7+  0.6+    071014 246  0.6+  0.7+  

070920 701  0.6-  1.7-    070924 291  0.3-  0.2-    071014 246  0.2-  0.6+  

070920 701 (3.6+  3.3+)   070924 291  0.8-  0.3-    071014 246  0.3+  0.1-  

070920 701  1.4-  0.5-    071001 585 (0.1+  6.3-)   071014 246  0.3+  0.9-  

070920 H06 (2.3+  0.2-)   071001 585 (0.4+  6.5-)   071015 A77  0.2+  0.5+  

070920 H06  1.5+  0.3+    071001 585 (2.2-  5.9-)   071015 A77  0.1-  0.3+  

070920 473 (2.7+  0.1+)   071004 673  0.6+  0.4-    071015 246  0.1+  0.5+  

070920 235  0.0   0.3+    071004 673  0.8+  0.4-    071015 246  0.2+  0.5+  

070920 473  1.0+  0.2+    071004 673  0.2+  0.0     071015 246  1.0-  0.8-  

070920 235  0.3+  0.2-    071004 673  0.3+  0.4-    071015 246  0.2-  0.3-  

070920 473  0.5+  0.2+    071005 213  0.8-  1.2+    071016 A77 (1.5-  2.4+) 

070920 235  1.1+  1.2-    071005 213  0.6-  1.8+    071016 A77  1.1-  1.2-  



NAKANO

         **** Don't distribute anyone except personal use only ****

                (C) Copyright 2007 OAA/ComputingSection

write mail from CFAD0::NAKANO on 2007-11-30 09:05:11(JST).

 





    P/2007 S1 (Zhao)

T 2007 Dec. 6.70022 TT                                  Nakano

q   2.4945964            (2000.0)            P               Q

n   0.13312011     Peri.  245.37962     +0.88792433     -0.45542949

a   3.7987462      Node   141.62261     +0.45064198     +0.83308499

e   0.3433106      Incl.    5.97346     +0.09226154     +0.31393213

P   7.40 (+/- 0.22 day)

From 69 observations 2007 Sept. 8-Oct. 15.



NAKANO

         **** Don't distribute anyone except personal use only ****

                (C) Copyright 2007 OAA/ComputingSection

write mail from CFAD0::NAKANO on 2007-10-18 07:23:28(JST).

 



◎P/2007 S1の軌道と予報位置



 秦野の浅見敦夫氏より,10月10日の観測が報告されました.氏のCCD全光度は

18.5等でした.



    P/2007 S1 (Zhao)

T 2007 Dec. 6.43571 TT                                  Nakano

q   2.4950177            (2000.0)            P               Q

n   0.13311675     Peri.  245.28956     +0.88855779     -0.45419253

a   3.7988100      Node   141.63282     +0.44948361     +0.83372088

e   0.3432107      Incl.    5.97470     +0.09181250     +0.31403604

P   7.40 (+/- 0.30 day)

From 53 observations 2007 Sept. 8-Oct. 10.

 

Date/        TT  R.A.(2000) Decl.     Delta   r     Daily motion  Mag.  Moon Age

              h    h  m       。  ,                      ,  / PA 。  m1      。

2007 Oct. 15 14  00 31.74  -04 43.1   1.549  2.517     9.2 / 241  18.0  115  .16

          16 14  00 31.20  -04 47.5   1.552  2.516     9.0 / 242  18.0  103  .24

          17 14  00 30.67  -04 51.7   1.555  2.515     8.7 / 242  18.0   91  .33

          18 14  00 30.16  -04 55.7   1.559  2.514     8.4 / 243  18.0   79  .42

          19 14  00 29.65  -04 59.6   1.563  2.514     8.2 / 243  18.0   66  .52

          20 14  00 29.16  -05 03.3   1.567  2.513     7.9 / 244  18.0   53  .63

          21 14  00 28.69  -05 06.8   1.571  2.512     7.6 / 244  18.0   40  .73

          22 14  00 28.23  -05 10.2   1.575  2.511     7.3 / 245  18.0   27  .82

          23 14  00 27.79  -05 13.3   1.580  2.511     7.0 / 245  18.0   15  .90

          24 14  00 27.37  -05 16.3   1.585  2.510     6.7 / 246  18.0   11  .96

          25 14  00 26.96  -05 19.0   1.590  2.509     6.4 / 246  18.0   22  .99

          26 14  00 26.57  -05 21.6   1.596  2.509     6.0 / 247  18.0   36 1.00

          27 14  00 26.20  -05 24.0   1.601  2.508     5.7 / 248  18.0   51  .97

          28 14  00 25.84  -05 26.2   1.607  2.507     5.4 / 248  18.0   66  .91

          29 14  00 25.51  -05 28.1   1.613  2.507     5.0 / 249  18.0   80  .84

          30 14  00 25.20  -05 29.9   1.619  2.506     4.6 / 250  18.0   95  .74

          31 14  00 24.90  -05 31.5   1.626  2.505     4.3 / 251  18.0  108  .64

     Nov.  1 14  00 24.63  -05 32.9   1.632  2.505     3.9 / 253  18.1  122  .53

NAKANO

         **** Don't distribute anyone except personal use only ****

                (C) Copyright 2007 OAA/ComputingSection

write mail from CFAD0::NAKANO on 2007-10-15 07:04:25(JST).

 



◎P/2007 S1の軌道と予報位置



 上尾の門田健一氏から9月21日の観測が報告されました.氏の CCD全光度は

18.3等でした.



    P/2007 S1 (Zhao)

T 2007 Dec. 7.97596 TT                                  Nakano

q   2.4983791            (2000.0)            P               Q

n   0.13273076     Peri.  245.56956     +0.88535983     -0.46038915

a   3.8061712      Node   141.75233     +0.45534915     +0.83068108

e   0.3435978      Incl.    5.99459     +0.09378235     +0.31306671

P   7.43 (+/- 2.10 days)

From 27 observations 2007 Sept. 8-21.

 

Date/        TT  R.A.(2000) Decl.     Delta   r     Daily motion  Mag.  Moon Age

              h    h  m       。  ,                      ,  / PA 。  m1      。

2007 Sept.20 14  00 46.23  -02 18.4   1.562  2.547    10.1 / 231  18.0   92  .59

          21 14  00 45.71  -02 24.7   1.559  2.546    10.2 / 231  18.0   79  .69

          22 14  00 45.17  -02 31.1   1.555  2.545    10.4 / 232  18.0   66  .78

          23 14  00 44.63  -02 37.5   1.552  2.544    10.5 / 233  18.0   53  .86

          24 14  00 44.08  -02 43.9   1.550  2.543    10.6 / 233  18.0   39  .93

          25 14  00 43.51  -02 50.2   1.547  2.542    10.7 / 234  18.0   25  .98

          26 14  00 42.94  -02 56.6   1.545  2.540    10.7 / 234  18.0   13 1.00

          27 14  00 42.36  -03 02.9   1.543  2.539    10.8 / 234  18.0   12  .99

          28 14  00 41.78  -03 09.1   1.542  2.538    10.8 / 235  18.0   24  .95

          29 14  00 41.19  -03 15.4   1.540  2.537    10.8 / 235  18.0   38  .89

          30 14  00 40.59  -03 21.5   1.539  2.536    10.9 / 236  18.0   53  .80

     Oct.  1 14  00 39.99  -03 27.7   1.538  2.535    10.9 / 236  18.0   67  .70

           2 14  00 39.39  -03 33.7   1.538  2.534    10.8 / 237  18.0   81  .59

           3 14  00 38.78  -03 39.7   1.537  2.533    10.8 / 237  18.0   95  .48

           4 14  00 38.18  -03 45.6   1.537  2.532    10.8 / 237  18.0  108  .38

           5 14  00 37.57  -03 51.4   1.538  2.531    10.7 / 238  18.0  121  .28

           6 14  00 36.97  -03 57.1   1.538  2.530    10.6 / 238  18.0  134  .19

           7 14  00 36.37  -04 02.8   1.539  2.529    10.5 / 238  18.0  146  .12

           8 14  00 35.77  -04 08.3   1.540  2.528    10.4 / 239  18.0  158  .06

           9 14  00 35.17  -04 13.7   1.541  2.527    10.3 / 239  18.0  167  .02

          10 14  00 34.58  -04 18.9   1.542  2.526    10.1 / 240  18.0  169  .00

          11 14  00 34.00  -04 24.1   1.544  2.525    10.0 / 240  18.0  161  .00

          12 14  00 33.42  -04 29.1   1.546  2.524     9.8 / 240  18.0  150  .02

          13 14  00 32.85  -04 33.9   1.548  2.523     9.6 / 241  18.0  138  .05

          14 14  00 32.29  -04 38.6   1.551  2.522     9.4 / 241  18.0  127  .10

          15 14  00 31.74  -04 43.2   1.554  2.521     9.2 / 241  18.0  115  .16

          16 14  00 31.20  -04 47.6   1.557  2.521     9.0 / 242  18.0  103  .24

          17 14  00 30.67  -04 51.8   1.560  2.520     8.7 / 242  18.0   91  .33

          18 14  00 30.16  -04 55.9   1.564  2.519     8.5 / 243  18.0   79  .42

          19 14  00 29.66  -04 59.8   1.567  2.518     8.2 / 243  18.0   66  .52

          20 14  00 29.17  -05 03.5   1.571  2.517     7.9 / 244  18.0   53  .63

          21 14  00 28.69  -05 07.0   1.576  2.517     7.6 / 244  18.0   40  .73

          22 14  00 28.23  -05 10.4   1.580  2.516     7.3 / 244  18.0   27  .82

          23 14  00 27.79  -05 13.5   1.585  2.515     7.0 / 245  18.0   15  .90

          24 14  00 27.37  -05 16.5   1.590  2.514     6.7 / 246  18.0   11  .96

          25 14  00 26.96  -05 19.3   1.595  2.514     6.4 / 246  18.0   22  .99

          26 14  00 26.57  -05 21.8   1.600  2.513     6.1 / 247  18.0   36 1.00

          27 14  00 26.19  -05 24.2   1.606  2.512     5.7 / 247  18.0   51  .97

          28 14  00 25.84  -05 26.4   1.612  2.512     5.4 / 248  18.0   66  .91

          29 14  00 25.51  -05 28.4   1.618  2.511     5.0 / 249  18.0   80  .84

          30 14  00 25.19  -05 30.2   1.624  2.510     4.7 / 250  18.0   95  .74

          31 14  00 24.90  -05 31.8   1.630  2.510     4.3 / 251  18.1  108  .64

     Nov.  1 14  00 24.63  -05 33.2   1.637  2.509     3.9 / 253  18.1  122  .53

NAKANO

         **** Don't distribute anyone except personal use only ****

                (C) Copyright 2007 OAA/ComputingSection

write mail from CFAD0::NAKANO on 2007-09-22 06:31:01(JST).

 



戻ります。